Torna al catalogo

THORAD DELTA 1 DEB

AttivoSSO
NORAD 8311·DEBRIS·🇺🇸 United States

Lanciato Nov 15, 1974 da Vandenberg Space Force Base

Loading…

Prossimi Passaggi (prossime 24 ore)

TLE

AggiornatoSource: Space-Track

Epoca: Sep 14, 2026, 08:48 UTC

1 08311U 74089BU  26257.36734998 -.00000040  00000-0  45758-4 0  9990
2 08311 102.1724 232.6071 0036222 202.5433 329.3951 12.45553855356332

Traccia THORAD DELTA 1 DEB in tempo reale con AllMySat

Download on the App Store